ORBCOMM FM 17

Satellite information

Favourite Embed

Satellite Type and Status

PAYLOADIN ORBIT

Key statistics

Satellite ORBCOMM FM 17 at a glance.

Uptime

9896

Days in orbit

Revolutions

≈ 14.4

Per day

Orbit

LEO

Low Earth Orbit

Inclination

45.0

Latest

Satellite identification and parameters

Extended collection of information and parameters for ORBCOMM FM 17.

Object identification

Identified? True

Debris? False

Object name: ORBCOMM FM 17

International designator: 1998-046A

Object number (NORAD): 25413

Object ID (CCSDS): 25413

Country: ORBITAL TELECOMMUNICATIONS SATELLITE (GLOBALSTAR) (ORB)

Current information (Y/N): Y

RCS size: MEDIUM

Orbital parameters

Period: 100.333 minutes

Inclination: 44.9933 deg

SMA: 7152.461 km

Apoapsis: 777.87 km

Periapsis: 770.782 km

RAAN: 250.2626 deg

Eccentricy: 0.00049551

Argument of periapsis: 260.7035 deg

Mean anomaly: 99.3252 deg

Mean motion: 14.35223348 rev/day

Mean motion (dot): 0.00001542 rev/day2

B* drag term: 0.00058302038 1/REarth

Two-line elements (TLE)

Creation date: Sept. 3, 2025, 10:15 a.m.

Reference frame: TEME

Reference center: EARTH

Epoch: Sept. 3, 2025, 12:22 a.m. UTC

TLE line 0: 0 ORBCOMM FM 17

TLE line 1: 1 25413U 98046A 25246.01536743 .00001542 00000-0 58302-3 0 9993

TLE line 2: 2 25413 44.9933 250.2626 0004955 260.7035 99.3252 14.35223348414350

Live tracking on map

Real-time ground track for satellite ORBCOMM FM 17.

In-orbit conjunctions

There are no conjunctions computed for ORBCOMM FM 17, at the moment. Check back to stay up to date, as we update our databases every day.

Go to all conjunctions

Associated space launch

ORBCOMM FM 17 was lifted into orbit during the mission ‘Pegasus XL HAPS | Orbcomm-B1 - B8’, on board a Pegasus XL HAPS space rocket.

The launch took place on Aug. 2, 1998, 4:24 p.m. from Wallops Flight Facility.

For more information about the launch, click the button.

Launch to space Pegasus XL HAPS | Orbcomm-B1 - B8
Pegasus XL HAPS | Orbcomm-B1 - B8

Agency: N/A

Status: Launch Successful

Launch date: Aug. 2, 1998, 4:24 p.m. UTC

Rocket: Pegasus XL HAPS

Launch pad: Wallops Flight Facility

Location: Air launch to orbit

...

Latest news about this satellite

There are no fresh news available about this satellite. Check back as we update our databases every day.


Newsletter sign-up

Weekly statistics, charts and insights to help you stay on top of the space industry.